| time (UTC) | temp F | wind direction | speed knots | gust knots | rain 1hr in | rain 24hr in | rain mn in | humidity % | barometer mb |
| 20260504050510 | 67 | 161 | 5.2 | 7.8 | 0.00 | 0.00 | 0.00 | 78 | 1017.0 |
| 20260504050009 | 67 | 160 | 5.2 | 7.0 | 0.00 | 0.00 | 0.00 | 78 | 1017.0 |
| 20260504045508 | 67 | 163 | 5.2 | 6.1 | 0.00 | 0.00 | 0.00 | 78 | 1017.1 |
| 20260504045009 | 67 | 159 | 5.2 | 7.0 | 0.00 | 0.00 | 0.00 | 78 | 1017.1 |
| 20260504044508 | 67 | 159 | 5.2 | 6.1 | 0.00 | 0.00 | 0.00 | 78 | 1017.1 |
| 20260504044009 | 67 | 158 | 4.3 | 6.1 | 0.00 | 0.00 | 0.00 | 77 | 1017.2 |
| 20260504043509 | 67 | 161 | 4.3 | 6.1 | 0.00 | 0.00 | 0.00 | 76 | 1017.3 |
| 20260504043009 | 68 | 162 | 5.2 | 6.1 | 0.00 | 0.00 | 0.00 | 76 | 1017.5 |
| 20260504042508 | 68 | 164 | 4.3 | 6.1 | 0.00 | 0.00 | 0.00 | 76 | 1017.7 |
| 20260504041509 | 68 | 170 | 4.3 | 5.2 | 0.00 | 0.00 | 0.00 | 75 | 1017.8 |
| 20260504041009 | 68 | 168 | 4.3 | 5.2 | 0.00 | 0.00 | 0.00 | 74 | 1017.9 |
| 20260504040510 | 69 | 170 | 2.6 | 5.2 | 0.00 | 0.00 | 0.00 | 74 | 1017.9 |
| 20260504040009 | 69 | 168 | 4.3 | 6.1 | 0.00 | 0.00 | 0.00 | 73 | 1017.8 |
| 20260504035508 | 69 | 161 | 5.2 | 7.0 | 0.00 | 0.00 | 0.00 | 73 | 1017.8 |
| 20260504035009 | 69 | 164 | 4.3 | 6.1 | 0.00 | 0.00 | 0.00 | 73 | 1017.7 |
| 20260504034509 | 69 | 180 | 3.5 | 6.1 | 0.00 | 0.00 | 0.00 | 73 | 1017.7 |
| 20260504034009 | 69 | 169 | 4.3 | 7.8 | 0.00 | 0.00 | 0.00 | 73 | 1017.6 |
| 20260504033509 | 69 | 169 | 5.2 | 7.0 | 0.00 | 0.00 | 0.00 | 73 | 1017.5 |
| 20260504033010 | 69 | 165 | 5.2 | 7.8 | 0.00 | 0.00 | 0.00 | 73 | 1017.5 |
| 20260504032509 | 69 | 167 | 5.2 | 7.8 | 0.00 | 0.00 | 0.00 | 73 | 1017.5 |
| 20260504032009 | 69 | 164 | 4.3 | 7.0 | 0.00 | 0.00 | 0.00 | 73 | 1017.5 |
| 20260504031509 | 69 | 163 | 5.2 | 7.0 | 0.00 | 0.00 | 0.00 | 73 | 1017.4 |
| 20260504031009 | 69 | 158 | 6.1 | 7.0 | 0.00 | 0.00 | 0.00 | 73 | 1017.4 |
| 20260504030509 | 69 | 160 | 5.2 | 6.1 | 0.00 | 0.00 | 0.00 | 73 | 1017.5 |
| 20260504025008 | 69 | 157 | 5.2 | 7.0 | 0.00 | 0.00 | 0.00 | 72 | 1017.4 |
| 20260504024509 | 70 | 155 | 5.2 | 7.8 | 0.00 | 0.00 | 0.00 | 71 | 1017.4 |
| 20260504024009 | 70 | 153 | 6.1 | 7.8 | 0.00 | 0.00 | 0.00 | 71 | 1017.3 |
| 20260504023009 | 70 | 153 | 6.1 | 8.7 | 0.00 | 0.00 | 0.00 | 70 | 1017.4 |
| 20260504022509 | 70 | 153 | 7.0 | 8.7 | 0.00 | 0.00 | 0.00 | 70 | 1017.4 |
| 20260504022009 | 70 | 148 | 7.0 | 10.4 | 0.00 | 0.00 | 0.00 | 69 | 1017.3 |
| 20260504021509 | 71 | 150 | 7.8 | 10.4 | 0.00 | 0.00 | 0.00 | 69 | 1017.3 |
| 20260504021009 | 71 | 155 | 7.0 | 10.4 | 0.00 | 0.00 | 0.00 | 68 | 1017.2 |
| 20260504020509 | 71 | 152 | 7.0 | 10.4 | 0.00 | 0.00 | 0.00 | 69 | 1017.2 |
| 20260504020009 | 71 | 150 | 6.1 | 10.4 | 0.00 | 0.00 | 0.00 | 68 | 1017.3 |
| 20260504015508 | 71 | 150 | 7.0 | 12.2 | 0.00 | 0.00 | 0.00 | 68 | 1017.2 |
| 20260504015009 | 71 | 151 | 7.8 | 10.4 | 0.00 | 0.00 | 0.00 | 68 | 1017.1 |
| 20260504014009 | 71 | 147 | 6.1 | 8.7 | 0.00 | 0.00 | 0.00 | 67 | 1016.9 |
| 20260504013509 | 72 | 151 | 8.7 | 11.3 | 0.00 | 0.00 | 0.00 | 66 | 1016.9 |
| 20260504013008 | 72 | 152 | 7.8 | 11.3 | 0.00 | 0.00 | 0.00 | 65 | 1016.8 |
| 20260504012508 | 72 | 150 | 7.8 | 11.3 | 0.00 | 0.00 | 0.00 | 64 | 1016.7 |
| 20260504012009 | 72 | 150 | 7.8 | 12.2 | 0.00 | 0.00 | 0.00 | 63 | 1016.7 |
| 20260504011508 | 73 | 149 | 8.7 | 12.2 | 0.00 | 0.00 | 0.00 | 63 | 1016.7 |
| 20260504011009 | 73 | 145 | 10.4 | 13.0 | 0.00 | 0.00 | 0.00 | 62 | 1016.7 |
| 20260504010009 | 73 | 147 | 8.7 | 13.9 | 0.00 | 0.00 | 0.00 | 61 | 1016.7 |
| 20260504005509 | 74 | 143 | 10.4 | 13.9 | 0.00 | 0.00 | 0.00 | 60 | 1016.5 |
| 20260504005009 | 74 | 144 | 7.8 | 14.8 | 0.00 | 0.00 | 0.00 | 59 | 1016.5 |
| 20260504004510 | 74 | 148 | 10.4 | 13.9 | 0.00 | 0.00 | 0.00 | 58 | 1016.5 |
| 20260504003509 | 75 | 151 | 10.4 | 13.9 | 0.00 | 0.00 | 0.00 | 56 | 1016.4 |
| 20260504003008 | 75 | 151 | 9.6 | 13.9 | 0.00 | 0.00 | 0.00 | 56 | 1016.6 |
| 20260504001509 | 76 | 150 | 8.7 | 13.9 | 0.00 | 0.00 | 0.00 | 53 | 1016.9 |
| 20260504001009 | 76 | 141 | 9.6 | 13.9 | 0.00 | 0.00 | 0.00 | 52 | 1016.9 |
| 20260504000508 | 76 | 138 | 8.7 | 13.0 | 0.00 | 0.00 | 0.00 | 52 | 1016.9 |
| 20260504000009 | 76 | 148 | 8.7 | 13.9 | 0.00 | 0.00 | 0.00 | 50 | 1016.9 |
| 20260503235510 | 77 | 136 | 8.7 | 13.0 | 0.00 | 0.00 | 0.00 | 49 | 1016.7 |
| 20260503235009 | 77 | 147 | 10.4 | 13.0 | 0.00 | 0.00 | 0.00 | 48 | 1016.7 |
| 20260503234009 | 77 | 140 | 7.8 | 12.2 | 0.00 | 0.00 | 0.00 | 48 | 1016.8 |
| 20260503233509 | 77 | 151 | 8.7 | 12.2 | 0.00 | 0.00 | 0.00 | 47 | 1016.8 |
| 20260503233009 | 77 | 135 | 9.6 | 13.0 | 0.00 | 0.00 | 0.00 | 48 | 1016.7 |
| 20260503232509 | 77 | 147 | 9.6 | 13.0 | 0.00 | 0.00 | 0.00 | 48 | 1016.8 |
| 20260503232009 | 78 | 131 | 8.7 | 14.8 | 0.00 | 0.00 | 0.00 | 49 | 1016.6 |
| 20260503231511 | 78 | 140 | 10.4 | 15.6 | 0.00 | 0.00 | 0.00 | 48 | 1016.7 |
| 20260503231009 | 78 | 142 | 10.4 | 14.8 | 0.00 | 0.00 | 0.00 | 48 | 1016.8 |
| 20260503230509 | 78 | 132 | 7.8 | 11.3 | 0.00 | 0.00 | 0.00 | 48 | 1016.9 |
| 20260503230008 | 78 | 115 | 9.6 | 14.8 | 0.00 | 0.00 | 0.00 | 47 | 1017.0 |
| 20260503225509 | 78 | 146 | 9.6 | 13.9 | 0.00 | 0.00 | 0.00 | 46 | 1017.0 |
| 20260503224508 | 79 | 152 | 7.0 | 13.9 | 0.00 | 0.00 | 0.00 | 47 | 1017.1 |
| 20260503224009 | 79 | 149 | 8.7 | 13.9 | 0.00 | 0.00 | 0.00 | 46 | 1017.1 |
| 20260503223509 | 79 | 136 | 7.8 | 12.2 | 0.00 | 0.00 | 0.00 | 47 | 1017.1 |
| 20260503223009 | 79 | 148 | 10.4 | 13.9 | 0.00 | 0.00 | 0.00 | 46 | 1017.1 |
| 20260503222508 | 79 | 157 | 7.8 | 11.3 | 0.00 | 0.00 | 0.00 | 47 | 1017.3 |
| 20260503222009 | 79 | 145 | 10.4 | 13.9 | 0.00 | 0.00 | 0.00 | 45 | 1017.4 |
| 20260503221508 | 79 | 153 | 8.7 | 13.9 | 0.00 | 0.00 | 0.00 | 45 | 1017.4 |
| 20260503221008 | 79 | 137 | 10.4 | 14.8 | 0.00 | 0.00 | 0.00 | 46 | 1017.2 |
| 20260503220509 | 79 | 146 | 10.4 | 13.9 | 0.00 | 0.00 | 0.00 | 46 | 1017.2 |
| 20260503220009 | 80 | 140 | 10.4 | 15.6 | 0.00 | 0.00 | 0.00 | 45 | 1017.2 |
| 20260503215509 | 79 | 141 | 8.7 | 13.9 | 0.00 | 0.00 | 0.00 | 45 | 1017.3 |
| 20260503215009 | 80 | 143 | 7.8 | 12.2 | 0.00 | 0.00 | 0.00 | 44 | 1017.6 |
| 20260503214508 | 80 | 127 | 7.8 | 13.0 | 0.00 | 0.00 | 0.00 | 45 | 1017.6 |
| 20260503214008 | 80 | 135 | 8.7 | 11.3 | 0.00 | 0.00 | 0.00 | 45 | 1017.8 |
| 20260503213509 | 80 | 181 | 7.8 | 13.9 | 0.00 | 0.00 | 0.00 | 45 | 1017.8 |
| 20260503213009 | 80 | 167 | 6.1 | 14.8 | 0.00 | 0.00 | 0.00 | 47 | 1017.9 |
| 20260503212509 | 80 | 149 | 7.8 | 13.0 | 0.00 | 0.00 | 0.00 | 47 | 1018.0 |
| 20260503212008 | 80 | 151 | 9.6 | 14.8 | 0.00 | 0.00 | 0.00 | 48 | 1018.1 |
| 20260503211509 | 80 | 153 | 7.8 | 12.2 | 0.00 | 0.00 | 0.00 | 46 | 1018.4 |
| 20260503211008 | 81 | 141 | 7.0 | 12.2 | 0.00 | 0.00 | 0.00 | 45 | 1018.4 |
| 20260503210509 | 81 | 167 | 7.0 | 12.2 | 0.00 | 0.00 | 0.00 | 47 | 1018.5 |
| 20260503210009 | 80 | 134 | 8.7 | 17.4 | 0.00 | 0.00 | 0.00 | 44 | 1018.5 |
| 20260503205509 | 80 | 188 | 5.2 | 8.7 | 0.00 | 0.00 | 0.00 | 47 | 1018.6 |
| 20260503205009 | 79 | 164 | 6.1 | 14.8 | 0.00 | 0.00 | 0.00 | 47 | 1018.7 |
| 20260503204509 | 79 | 136 | 8.7 | 14.8 | 0.00 | 0.00 | 0.00 | 48 | 1018.7 |
| 20260503204009 | 79 | 137 | 8.7 | 15.6 | 0.00 | 0.00 | 0.00 | 48 | 1018.7 |
| 20260503203010 | 80 | 141 | 8.7 | 13.0 | 0.00 | 0.00 | 0.00 | 45 | 1018.9 |
| 20260503202509 | 80 | 192 | 2.6 | 8.7 | 0.00 | 0.00 | 0.00 | 43 | 1018.9 |
| 20260503202008 | 80 | 143 | 8.7 | 13.0 | 0.00 | 0.00 | 0.00 | 42 | 1019.0 |
| 20260503201509 | 80 | 150 | 7.0 | 12.2 | 0.00 | 0.00 | 0.00 | 45 | 1019.1 |
| 20260503201008 | 80 | 155 | 8.7 | 12.2 | 0.00 | 0.00 | 0.00 | 45 | 1019.2 |
| 20260503200509 | 80 | 154 | 8.7 | 13.9 | 0.00 | 0.00 | 0.00 | 43 | 1019.2 |
| 20260503195508 | 80 | 125 | 5.2 | 13.0 | 0.00 | 0.00 | 0.00 | 42 | 1019.3 |
| 20260503195008 | 80 | 147 | 7.8 | 12.2 | 0.00 | 0.00 | 0.00 | 43 | 1019.4 |
| 20260503194009 | 80 | 134 | 7.8 | 12.2 | 0.00 | 0.00 | 0.00 | 44 | 1019.6 |
| 20260503193509 | 80 | 136 | 2.6 | 8.7 | 0.00 | 0.00 | 0.00 | 44 | 1019.7 |
| 20260503193009 | 80 | 136 | 3.5 | 10.4 | 0.00 | 0.00 | 0.00 | 42 | 1019.8 |
| 20260503192508 | 80 | 127 | 7.8 | 11.3 | 0.00 | 0.00 | 0.00 | 44 | 1019.9 |
| 20260503192008 | 79 | 139 | 5.2 | 11.3 | 0.00 | 0.00 | 0.00 | 45 | 1020.0 |
| 20260503191509 | 79 | 121 | 5.2 | 10.4 | 0.00 | 0.00 | 0.00 | 46 | 1020.0 |
| 20260503191008 | 79 | 127 | 5.2 | 11.3 | 0.00 | 0.00 | 0.00 | 43 | 1020.0 |
| 20260503190508 | 79 | 87 | 4.3 | 7.8 | 0.00 | 0.00 | 0.00 | 42 | 1020.1 |
| 20260503190009 | 79 | 129 | 7.8 | 12.2 | 0.00 | 0.00 | 0.00 | 43 | 1020.3 |
| 20260503185508 | 80 | 144 | 5.2 | 11.3 | 0.00 | 0.00 | 0.00 | 43 | 1020.4 |
| 20260503184009 | 80 | 146 | 7.8 | 12.2 | 0.00 | 0.00 | 0.00 | 45 | 1020.5 |
| 20260503183508 | 80 | 154 | 7.8 | 11.3 | 0.00 | 0.00 | 0.00 | 42 | 1020.5 |
| 20260503183008 | 79 | 198 | 2.6 | 7.8 | 0.00 | 0.00 | 0.00 | 44 | 1020.7 |
| 20260503182508 | 79 | 183 | 6.1 | 10.4 | 0.00 | 0.00 | 0.00 | 43 | 1020.7 |
| 20260503182008 | 79 | 142 | 6.1 | 10.4 | 0.00 | 0.00 | 0.00 | 44 | 1020.8 |
| 20260503181508 | 79 | 149 | 6.1 | 11.3 | 0.00 | 0.00 | 0.00 | 42 | 1020.8 |
| 20260503181008 | 79 | 166 | 5.2 | 8.7 | 0.00 | 0.00 | 0.00 | 43 | 1020.9 |
| 20260503180508 | 79 | 170 | 6.1 | 13.0 | 0.00 | 0.00 | 0.00 | 46 | 1020.9 |
| 20260503180008 | 78 | 177 | 5.2 | 8.7 | 0.00 | 0.00 | 0.00 | 46 | 1021.1 |
| 20260503175009 | 78 | 43 | 5.2 | 13.9 | 0.00 | 0.00 | 0.00 | 45 | 1021.1 |
| 20260503174509 | 78 | 141 | 2.6 | 5.2 | 0.00 | 0.00 | 0.00 | 46 | 1021.2 |
| 20260503174009 | 79 | 104 | 4.3 | 11.3 | 0.00 | 0.00 | 0.00 | 45 | 1021.3 |
| 20260503172508 | 78 | 185 | 4.3 | 7.0 | 0.00 | 0.00 | 0.00 | 47 | 1021.4 |
| 20260503172008 | 78 | 121 | 1.7 | 7.0 | 0.00 | 0.00 | 0.00 | 44 | 1021.5 |
| 20260503171508 | 78 | 154 | 5.2 | 10.4 | 0.00 | 0.00 | 0.00 | 46 | 1021.5 |
| 20260503170508 | 77 | 158 | 4.3 | 10.4 | 0.00 | 0.00 | 0.00 | 47 | 1021.5 |
| 20260503151009 | 73 | 75 | 0.9 | 4.3 | 0.00 | 0.00 | 0.00 | 57 | 1022.2 |
| 20260503150508 | 72 | 63 | 2.6 | 6.1 | 0.00 | 0.00 | 0.00 | 60 | 1022.2 |
| 20260503131008 | 61 | 324 | 1.7 | 4.3 | 0.00 | 0.00 | 0.00 | 84 | 1021.9 |
| 20260503130510 | 61 | 312 | 2.6 | 4.3 | 0.00 | 0.00 | 0.00 | 84 | 1021.8 |
| 20260503110507 | 58 | 271 | 0.0 | 1.7 | 0.00 | 0.00 | 0.00 | 88 | 1020.4 |
| 20260503090508 | 61 | 109 | 0.0 | 0.0 | 0.00 | 0.01 | 0.00 | 81 | 1020.3 |
| 20260503081507 | 62 | 55 | 1.7 | 1.7 | 0.00 | 0.01 | 0.00 | 76 | 1020.5 |
| 20260503081008 | 62 | 58 | 0.9 | 1.7 | 0.00 | 0.01 | 0.00 | 76 | 1020.5 |
| 20260503080507 | 62 | 47 | 1.7 | 2.6 | 0.00 | 0.01 | 0.00 | 77 | 1020.5 |
| 20260503072507 | 63 | 52 | 0.9 | 1.7 | 0.00 | 0.01 | 0.00 | 75 | 1020.8 |
| 20260503072008 | 63 | 54 | 1.7 | 2.6 | 0.00 | 0.01 | 0.00 | 75 | 1020.8 |
| 20260503071508 | 63 | 58 | 1.7 | 2.6 | 0.00 | 0.01 | 0.00 | 75 | 1020.7 |
| 20260503071008 | 63 | 46 | 1.7 | 2.6 | 0.00 | 0.01 | 0.00 | 75 | 1020.9 |
| 20260503070507 | 63 | 63 | 1.7 | 2.6 | 0.00 | 0.01 | 0.00 | 75 | 1020.8 |